Powrót do katalogu

KUIPER-00079

AktywnyŁącznośćLEO
NORAD 64826·PAYLOAD·🇺🇸 United States

Wystrzelony Jul 16, 2025 z Cape Canaveral Space Force Station

Loading…

Następne Przeloty (najbliższe 24 godziny)

TLE

ŚwieżeSource: CelesTrak SupGP

Epoka: Sep 14, 2026, 23:20 UTC

1 64826C 25151L   26257.97262732 -.00020201  00000+0 -26447-2 0  2578
2 64826  51.8982 183.5408 0001094  73.1074 254.8121 14.79944737    15

Śledź KUIPER-00079 w czasie rzeczywistym z AllMySat

Download on the App Store